This demonstration page uses our WeatherBlox Daily Observations layout. Learn more.

39.08367, -84.50855

Hourly Observations for May 30, 2019

Temp ( °F °C ) Dew Point ( °F °C ) Humidity (%) Winds ( mph kmh ) Pressure ( in mb ) Visibility ( mi km ) Precip ( " mm )
12:53 am 00:53 Mostly Clear 70 21.1 68 20 93 93 S 8 13 29.8 1009 10 16.09344 0 0
1:27 am 01:27 Partly Cloudy with Nearby Thunderstorms 71 21.7 68 20 90 90 SW 7 11 29.85 1011 10 16.09344 0 0
1:53 am 01:53 Cloudy with Nearby Thunderstorms 69 20.6 64 17.8 84 84 W 7 11 29.83 1010 6 9.656064 0.05 1.27
2:06 am 02:06 Cloudy 68 20 65 18.3 90 90 SW 6 9 29.83 1010 10 16.09344 0.001 0.001
2:53 am 02:53 Mostly Clear 67 19.4 64 17.8 91 91 S 6 9 29.8 1009 10 16.09344 0.001 0.001
3:53 am 03:53 Mostly Cloudy with Light Rain 66 18.9 65 18.3 96 96 Calm 29.77 1008 9 14.484096 0.001 0.001
4:53 am 04:53 Cloudy 67 19.4 65 18.3 93 93 SW 7 11 29.77 1008 10 16.09344 0.001 0.001
5:53 am 05:53 Cloudy with Light Rain 67 19.4 66 18.9 97 97 SW 3 6 29.77 1008 10 16.09344 0.001 0.001
6:53 am 06:53 Cloudy 68 20 66 18.9 93 93 SSW 9 15 29.77 1008 10 16.09344 0.01 0.254
7:53 am 07:53 Cloudy 69 20.6 64 17.8 84 84 SW 8 13 29.8 1009 10 16.09344 0 0
8:53 am 08:53 Cloudy 69 20.6 64 17.8 84 84 SW 7 11 29.8 1009 10 16.09344 0 0
9:53 am 09:53 Cloudy 70 21.1 65 18.3 84 84 SW 9 15 29.8 1009 10 16.09344 0.001 0.001
10:53 am 10:53 Cloudy 70 21.1 65 18.3 84 84 SSW 12 19 29.8 1009 10 16.09344 0.001 0.001
11:25 am 11:25 Cloudy with Light Rain 70 21.1 67 19.4 90 90 SW 8 13 29.83 1010 9 14.484096 0.01 0.254
11:44 am 11:44 Cloudy with Light Rain 70 21.1 66 18.9 87 87 SW 6 9 29.83 1010 9 14.484096 0.01 0.254
11:53 am 11:53 Cloudy with Light Rain 70 21.1 66 18.9 87 87 SW 6 9 29.8 1009 7 11.265408 0.02 0.508
12:53 pm 12:53 Cloudy with Rain 70 21.1 67 19.4 90 90 WSW 9 15 29.83 1010 5 8.04672 0.03 0.762
1:09 pm 13:09 Cloudy with Light Rain 70 21.1 67 19.4 90 90 SW 7 11 29.83 1010 7 11.265408 0.02 0.508
1:53 pm 13:53 Mostly Cloudy with Light Rain 71 21.7 67 19.4 87 87 SSW 10 17 29.8 1009 10 16.09344 0.02 0.508
2:53 pm 14:53 Mostly Cloudy 73 22.8 67 19.4 81 81 SW 9 15 29.8 1009 10 16.09344 0.001 0.001
3:53 pm 15:53 Mostly Cloudy 73 22.8 66 18.9 79 79 SW 7 11 29.8 1009 10 16.09344 0.001 0.001
4:11 pm 16:11 Mostly Cloudy 73 22.8 66 18.9 79 79 WSW 12 19 29.83 1010 10 16.09344 0 0
4:22 pm 16:22 Mostly Cloudy 73 22.8 66 18.9 79 79 WSW 6 9 29.83 1010 10 16.09344 0 0
4:53 pm 16:53 Mostly Cloudy 74 23.3 67 19.4 79 79 WSW 6 9 29.8 1009 10 16.09344 0 0
5:53 pm 17:53 Partly Cloudy 75 23.9 66 18.9 74 74 SW 14 22 29.8 1009 10 16.09344 0 0
6:53 pm 18:53 Mostly Cloudy 76 24.4 66 18.9 72 72 WSW 9 15 29.77 1008 10 16.09344 0 0
7:53 pm 19:53 Mostly Cloudy 74 23.3 65 18.3 74 74 SW 8 13 29.77 1008 10 16.09344 0 0
8:53 pm 20:53 Mostly Sunny 71 21.7 64 17.8 79 79 WSW 5 7 29.8 1009 10 16.09344 0 0
9:53 pm 21:53 Clear 66 18.9 65 18.3 96 96 Calm 29.83 1010 10 16.09344 0 0
10:53 pm 22:53 Mostly Cloudy 66 18.9 63 17.2 90 90 NE 12 19 29.85 1011 7 11.265408 0 0
11:04 pm 23:04 Cloudy 68 20 59 15 73 73 ENE 8 13 29.88 1012 10 16.09344 0 0
11:13 pm 23:13 Cloudy 68 20 60 15.6 76 76 ESE 6 9 29.88 1012 10 16.09344 0 0
11:53 pm 23:53 Mostly Cloudy 66 18.9 58 14.4 75 75 SW 3 6 29.83 1010 10 16.09344 0 0

Powered by AerisWeather